RH
18 19 20 21 22 23 25 26 29 32 35 35 35 34 33 32 31 31 29 27 23 21 18 19 20 21 22 23 25 26 28 29 29 29 29 30 31 32 32 31 30 29 29 29 29 28 27 27 26 25 23 21 21 21 21 22 23 23 23 22 22 21 20 20 20 19 20 21 24 27 29 31 31 29 28 27 29 31 32 33 33 32 30 29 28 28 29 30 31 31 31 31 30 29 27 24 23 23 23 24 25 26 25
18 19 20 21 22 23 25 26 27 30 33 34 33 31 28 27 27 27 26 25 23 20 19 19 20 22 23 25 26 27 29 29 30 30 30 31 32 33 32 31 30 30 30 30 29 28 28 27 26 26 25 23 22 22 22 23 23 24 24 24 23 22 22 21 21 21 20 20 22 26 33 35 36 34 30 26 26 28 29 31 32 32 32 30 29 28 27 29 29 30 30 30 30 30 29 28 26 24 24 24 25 25 24
17 18 19 20 21 22 24 25 25 27 30 31 30 28 26 26 25 24 24 23 22 20 19 20 22 23 25 26 27 28 29 30 31 31 31 32 33 33 33 31 31 30 30 29 29 28 28 27 27 27 26 25 23 23 23 24 24 24 25 25 24 24 23 23 22 22 22 21 21 23 30 35 37 35 30 26 28 32 30 29 29 29 29 28 29 28 28 27 28 28 29 29 29 29 29 29 28 27 26 25 26 27 27
16 16 18 19 20 21 22 22 23 24 26 28 28 28 29 28 26 23 22 22 21 20 19 21 23 25 26 27 27 28 29 30 31 32 32 33 33 33 33 32 31 30 29 28 27 27 27 28 28 28 27 26 25 24 23 24 24 25 25 25 25 24 24 24 24 23 23 22 21 20 20 22 22 21 22 23 30 36 35 28 25 24 25 25 26 28 29 29 29 29 29 30 30 29 29 28 28 28 28 29 30 31 28
15 15 17 18 19 20 20 21 21 22 24 25 27 29 31 29 26 23 22 22 21 21 20 23 24 26 27 27 28 28 29 31 32 32 33 33 34 34 33 32 30 29 28 26 26 26 26 27 28 28 28 27 26 25 24 25 25 25 25 25 25 25 25 25 25 24 24 23 23 22 21 20 19 20 19 19 21 25 32 24 22 23 24 22 23 25 29 31 31 31 31 31 32 32 30 29 29 29 30 30 29 28 28
13 15 16 17 18 19 20 20 20 21 22 24 26 28 28 26 24 22 22 22 22 21 22 24 25 26 27 28 28 29 30 32 33 33 33 34 34 34 33 31 30 28 26 25 25 25 25 26 27 27 28 27 27 26 25 25 26 26 26 26 26 26 26 26 26 25 25 24 24 24 23 21 20 20 19 19 18 18 19 18 18 18 18 20 21 23 27 29 32 33 32 32 33 34 33 31 30 30 31 32 31 30 29
13 14 15 17 17 18 19 19 20 20 22 22 23 23 23 22 22 22 22 22 22 22 23 25 26 27 28 28 29 30 31 32 33 33 34 35 34 34 33 30 29 27 26 26 25 24 25 26 26 27 27 27 27 27 26 26 27 27 27 27 27 27 27 28 27 27 27 26 25 25 24 23 21 20 19 19 19 18 18 18 17 17 17 19 21 22 22 26 30 34 34 34 34 35 36 34 32 31 33 34 34 33 32
14 14 15 17 17 18 18 19 19 20 21 21 21 20 20 20 21 22 22 22 22 23 25 26 27 28 29 29 30 30 32 33 33 34 35 35 35 34 32 30 29 28 28 27 26 25 25 26 26 26 27 27 27 27 27 27 27 27 28 28 28 28 29 29 28 28 28 27 27 26 25 24 23 22 21 21 20 19 19 18 18 17 17 17 19 20 21 23 26 30 32 33 34 36 37 35 34 32 33 35 36 35 35
16 16 16 17 18 18 17 18 19 19 20 20 20 20 20 21 22 23 23 23 23 24 26 27 28 30 30 30 30 31 33 33 34 34 35 36 35 34 33 31 30 29 30 29 28 27 26 26 26 26 26 27 27 28 28 28 28 28 28 29 29 29 30 29 29 29 29 28 28 27 26 26 25 23 22 22 21 21 20 19 18 17 17 17 17 17 18 20 22 25 27 30 32 34 35 34 33 32 32 34 36 36 36
19 18 18 18 18 18 17 18 19 19 20 20 21 21 21 22 22 23 23 24 24 25 27 29 30 31 31 31 31 32 33 34 35 35 36 36 35 34 33 32 31 31 32 31 30 29 27 26 26 26 26 27 28 28 28 29 29 29 29 29 29 30 31 30 30 30 29 29 29 28 28 28 27 25 24 23 22 22 21 20 19 18 18 17 17 17 17 17 19 21 23 25 28 29 30 31 31 31 31 34 36 37 37
22 21 19 19 18 18 18 18 19 20 20 21 22 22 22 23 23 23 23 24 25 26 29 30 31 32 32 32 32 33 34 35 35 36 36 36 36 35 34 33 32 33 33 33 32 31 30 28 27 26 27 27 28 28 29 29 30 30 30 30 30 30 30 30 30 31 30 30 30 30 30 29 28 27 26 25 24 23 22 22 21 20 19 18 18 17 17 16 17 18 19 21 22 24 25 26 28 28 29 32 35 38 39
24 23 21 19 19 18 19 19 20 20 21 22 22 23 23 23 23 23 23 24 25 27 30 31 32 32 32 33 33 34 35 36 36 37 37 37 36 36 34 34 34 34 34 34 34 33 32 30 28 27 27 27 28 29 29 30 30 30 30 30 30 30 31 31 30 30 31 31 31 31 32 31 30 28 27 26 25 24 23 23 22 22 20 20 19 18 18 18 17 17 17 18 19 20 21 22 24 26 27 30 33 36 38
26 25 23 20 19 19 20 20 21 21 22 23 24 24 24 24 24 24 24 25 27 29 31 32 33 33 33 33 34 35 36 37 38 38 39 38 37 36 35 34 34 34 34 34 34 34 34 33 31 29 27 28 28 29 30 30 31 31 31 31 30 31 32 31 30 31 31 31 32 32 33 32 31 29 28 27 26 25 24 23 23 23 22 22 21 20 19 19 19 19 18 18 19 19 20 21 23 25 26 28 31 34 36
28 26 25 22 20 21 21 21 22 22 23 24 25 25 26 26 25 25 26 27 29 31 32 33 33 34 34 34 34 35 36 37 39 39 40 39 38 37 36 35 35 35 35 35 35 35 35 35 33 31 29 29 29 30 30 31 31 31 31 31 31 32 33 32 31 31 31 32 32 33 33 32 30 29 28 28 27 26 25 24 24 24 24 24 23 22 21 21 20 20 19 20 20 20 19 21 23 25 27 29 30 32 33
30 28 26 23 22 22 22 23 23 24 24 25 26 27 28 28 28 28 28 29 31 33 34 34 34 34 34 35 35 36 37 38 39 40 41 40 39 38 36 36 36 36 36 36 36 36 36 36 35 33 31 30 29 30 30 31 32 32 32 32 32 32 32 32 32 31 31 32 32 32 32 31 30 29 28 28 27 26 26 25 25 25 26 26 25 25 24 23 22 22 21 21 20 20 20 20 21 23 26 28 29 29 30
33 30 28 25 23 23 24 24 25 26 26 28 29 30 31 32 32 31 31 31 32 34 35 35 35 35 35 35 36 36 37 39 40 41 42 41 40 38 37 37 37 37 37 38 38 38 38 37 35 34 32 31 30 30 31 31 32 32 32 32 33 33 33 32 32 31 31 31 31 31 31 31 30 30 29 28 27 26 25 25 26 27 28 28 28 27 26 25 24 23 23 22 22 21 21 21 21 22 23 25 26 27 28
35 32 29 26 25 25 25 26 27 28 29 30 32 33 34 35 35 34 33 33 34 35 36 36 36 36 36 36 37 37 38 39 40 41 42 42 41 39 38 38 38 38 39 39 39 39 39 37 36 34 33 32 31 31 31 31 32 32 33 33 34 34 33 33 32 31 31 31 31 31 31 31 31 30 29 28 27 26 24 24 26 28 29 31 30 29 27 27 26 26 26 27 27 26 25 24 24 24 24 25 26 27 28
36 34 31 29 28 28 28 29 30 31 32 33 35 36 37 38 38 37 36 35 34 35 36 37 38 38 38 38 38 38 39 39 41 42 42 42 41 40 39 39 39 39 40 40 41 41 40 38 36 35 33 33 32 32 31 32 32 32 33 34 34 35 34 34 33 32 31 31 30 30 31 31 31 30 30 29 28 26 25 24 25 26 28 30 32 32 29 28 28 28 30 33 34 32 29 29 28 28 28 29 29 29 29
37 36 34 33 32 31 31 32 33 34 35 36 37 38 40 40 41 40 39 37 36 35 36 37 39 39 40 40 40 40 40 40 41 42 42 42 42 41 40 40 40 41 41 42 42 42 42 40 37 35 34 33 33 33 32 32 32 32 33 34 35 36 36 36 35 33 32 31 30 30 30 31 31 31 31 30 28 27 26 25 24 25 26 28 31 33 31 32 30 29 30 36 38 36 34 34 33 33 33 34 33 31 29
37 37 38 37 35 34 34 35 36 37 38 39 39 40 41 42 42 42 41 40 38 37 36 37 39 40 41 41 41 41 41 41 42 42 42 43 42 42 42 42 42 42 43 44 44 44 43 41 38 36 35 34 34 33 33 33 33 33 34 35 36 37 38 37 37 35 34 33 31 30 30 31 31 32 32 31 30 28 27 26 25 25 26 27 29 30 31 34 34 32 30 37 39 38 38 37 37 36 37 38 36 33 30
38 38 40 39 38 37 37 38 38 39 40 40 41 42 42 42 42 42 42 41 41 39 38 38 39 40 42 43 43 43 43 43 43 43 43 44 44 44 44 44 44 45 46 46 46 45 44 42 39 37 36 35 35 34 34 34 34 34 35 37 38 39 39 39 38 38 36 35 33 32 31 31 32 33 33 32 31 30 29 28 27 26 26 27 28 28 28 31 32 32 30 35 38 38 38 38 38 38 39 40 37 34 34
37 38 39 39 39 38 39 40 40 41 41 42 43 43 43 42 42 42 42 42 42 41 40 39 39 40 42 44 45 45 45 45 45 45 45 46 46 46 46 46 47 47 48 48 47 46 45 43 41 39 37 36 36 36 36 36 36 36 37 38 39 40 40 40 40 39 39 38 36 34 33 33 34 34 35 34 33 32 31 30 29 28 27 27 27 27 27 28 29 30 30 32 33 34 37 37 35 35 38 39 39 39 40
36 37 38 39 40 40 40 41 42 43 43 43 44 44 43 42 42 41 42 42 43 43 42 41 40 40 42 44 45 47 47 47 47 47 47 48 48 48 48 49 49 49 50 49 49 47 46 44 42 40 38 37 37 37 37 37 38 38 39 39 40 41 41 41 40 40 40 40 39 38 36 36 36 36 36 35 34 33 32 31 30 29 28 28 28 29 29 30 30 30 31 32 32 33 33 33 32 31 34 37 41 42 42
33 35 37 39 41 41 42 42 43 44 44 44 44 44 44 43 42 41 41 42 43 43 43 42 41 40 41 43 45 47 49 49 49 49 49 49 49 50 50 50 51 51 51 50 49 48 46 45 43 41 39 38 38 38 39 39 39 39 40 40 41 42 42 42 42 41 42 41 41 40 39 39 38 38 37 36 35 34 33 33 32 31 31 31 31 32 32 31 31 31 30 31 31 32 32 33 31 30 32 38 41 42 41
31 33 36 39 41 42 43 44 44 45 45 45 45 44 44 43 43 42 42 42 43 44 44 44 43 42 41 42 44 47 49 50 50 50 50 50 50 50 51 51 51 51 51 51 50 49 47 46 44 42 40 39 39 39 40 40 40 40 41 41 42 43 43 43 43 43 43 43 43 43 42 42 41 40 39 38 37 36 35 35 35 35 35 35 34 34 33 32 30 30 29 29 29 29 30 32 30 29 33 39 41 40 40
30 32 34 37 40 42 44 44 45 45 45 45 45 44 44 44 44 44 43 43 43 44 45 45 44 43 42 42 44 46 49 50 50 50 50 50 50 50 51 51 52 52 52 52 52 51 49 47 45 43 41 41 40 40 40 41 41 41 41 42 42 43 44 44 44 45 44 45 45 45 45 44 44 43 41 40 39 38 38 38 38 38 38 37 36 35 34 32 31 30 29 28 28 28 29 29 29 31 35 40 40 39 38
31 31 33 36 39 42 43 44 45 45 45 44 45 45 45 45 45 45 45 44 44 44 45 45 46 45 44 43 44 46 48 50 51 51 50 50 50 50 51 51 53 54 54 55 54 53 51 48 46 44 42 41 41 41 41 41 41 41 42 42 43 44 45 46 46 47 47 47 47 47 47 46 46 44 43 42 41 40 40 40 41 41 40 39 39 37 36 34 32 30 28 28 28 28 29 29 29 29 33 38 39 39 38
33 32 33 35 38 40 43 43 44 45 45 45 45 46 46 46 46 46 46 46 45 45 45 46 46 46 45 44 45 46 48 49 51 51 51 50 50 50 51 52 54 55 57 57 56 55 52 49 47 44 42 42 41 41 41 41 41 41 42 42 43 44 45 46 47 48 48 48 48 48 48 47 46 45 44 43 42 42 42 42 43 43 42 42 40 39 37 34 32 30 28 27 27 28 29 30 29 28 29 35 38 39 38
36 34 34 35 37 39 41 42 43 44 45 45 46 47 48 48 47 47 47 47 48 48 47 48 47 47 46 45 45 46 47 49 51 51 51 51 50 50 51 53 55 57 59 59 58 56 53 49 46 44 43 42 41 41 41 41 41 41 42 43 44 44 45 46 47 48 49 49 49 48 48 47 46 45 45 44 43 43 43 43 44 44 44 43 42 40 38 35 32 30 27 27 27 28 29 29 29 28 26 30 35 38 39
39 37 36 36 37 38 40 41 43 44 45 46 47 49 50 50 50 49 48 49 50 51 51 50 49 47 46 45 45 46 47 49 50 51 51 51 51 51 51 53 55 57 59 60 59 56 53 49 47 44 42 42 41 41 41 41 41 41 42 43 43 44 44 45 46 47 48 49 49 48 47 46 46 46 45 45 44 44 44 44 44 45 44 43 42 41 38 35 33 30 28 27 27 28 29 29 28 27 26 26 29 33 36
44 41 39 38 38 38 39 41 43 44 46 47 48 50 51 52 53 52 51 52 53 54 54 52 50 48 45 44 44 45 47 49 50 52 52 52 51 51 52 54 56 58 60 60 59 57 54 50 47 45 43 42 41 41 41 41 41 42 43 43 43 44 44 46 47 48 49 49 49 49 49 48 48 47 47 46 44 44 44 44 44 44 44 43 42 40 38 36 33 30 28 28 28 28 29 28 27 27 26 26 26 28 31
49 45 42 41 39 39 40 42 44 46 47 48 49 50 52 55 56 55 55 56 56 57 56 53 50 47 45 45 45 46 48 50 51 52 53 53 53 53 54 55 57 59 60 60 60 58 56 52 49 46 43 42 41 41 42 43 43 44 44 44 45 46 46 48 49 50 51 52 52 53 53 52 50 49 46 46 44 43 43 45 45 45 45 44 43 40 38 35 33 31 30 29 29 29 29 27 26 25 24 25 26 27 29
52 49 45 43 42 41 42 44 46 48 49 50 50 51 54 57 58 58 58 59 58 58 56 53 50 48 47 46 47 48 49 51 52 53 54 55 55 55 56 57 58 59 60 60 60 59 57 54 51 47 44 43 42 43 43 44 45 45 45 45 46 47 49 50 52 53 55 55 56 56 55 54 53 50 47 44 42 42 43 46 47 46 47 46 44 41 38 36 33 32 31 31 31 30 29 27 25 23 23 23 24 26 27
56 52 49 46 44 44 44 46 48 49 50 51 51 53 56 58 60 60 61 61 60 58 56 54 52 50 50 50 50 51 52 53 54 55 56 56 57 57 58 58 59 59 59 60 60 60 59 57 53 50 47 46 45 45 45 45 45 45 45 45 45 46 48 51 53 54 55 56 57 57 56 55 53 50 47 45 43 42 42 47 48 48 48 47 45 42 39 36 34 33 33 33 32 31 28 26 24 23 22 23 24 24 25
61 57 54 51 49 49 48 49 50 51 51 51 52 53 57 59 61 62 64 64 62 60 58 56 55 54 55 55 55 55 55 56 56 57 58 59 59 60 60 60 60 60 60 60 61 61 61 59 57 54 51 50 48 47 46 45 45 45 44 42 42 42 43 45 48 50 53 55 56 56 56 54 52 49 47 45 44 44 43 48 50 50 50 48 46 43 40 38 36 35 34 34 32 30 28 26 26 26 26 25 25 25 25
67 64 61 58 58 59 57 54 53 52 52 52 52 54 57 60 62 64 66 67 66 65 63 61 61 61 61 62 62 62 61 61 61 62 62 63 64 64 63 62 62 61 61 62 62 63 63 61 60 58 55 53 51 49 48 48 48 47 46 43 41 39 38 38 41 44 48 50 52 54 54 52 50 48 46 45 45 45 45 51 53 53 52 50 47 44 42 40 38 37 36 35 33 30 29 32 33 33 31 28 27 26 26
74 71 68 67 68 68 66 60 56 54 53 54 55 57 60 63 65 67 70 71 72 71 70 69 68 69 70 70 71 71 70 69 68 68 68 69 69 68 66 65 64 64 63 64 64 64 64 64 63 62 60 57 55 53 52 52 52 51 50 47 44 40 37 36 37 38 42 45 47 48 48 47 46 45 46 46 46 45 45 48 51 53 54 52 49 48 46 43 41 39 37 36 34 32 31 35 37 36 32 28 26 25 26
76 75 72 71 71 70 66 61 58 56 55 59 62 64 67 70 71 73 74 75 75 76 76 75 75 76 77 77 78 78 78 77 77 76 76 75 73 71 69 68 67 67 66 66 66 66 67 66 67 66 65 63 60 59 58 57 56 54 52 48 44 40 37 35 35 36 38 40 41 42 42 41 42 43 44 45 46 46 46 48 50 52 53 52 52 52 51 48 44 42 39 37 34 33 31 33 34 32 30 30 29 28 27
79 78 76 73 70 67 64 61 59 58 60 65 69 73 75 77 77 78 78 79 79 79 80 80 80 80 81 81 81 81 82 82 82 82 82 79 77 73 71 70 70 69 69 69 68 68 69 69 69 70 70 69 66 63 61 59 57 54 51 47 43 39 36 34 34 34 35 35 36 36 37 38 39 42 44 45 46 47 47 47 48 49 50 51 53 54 53 50 47 44 43 37 34 32 31 32 33 33 34 34 34 32 30
80 80 78 75 71 67 64 62 61 63 67 72 75 79 81 82 82 82 83 83 84 84 84 84 83 83 83 83 83 82 83 84 84 84 83 81 79 75 73 72 72 71 71 71 71 71 71 71 72 72 73 72 70 66 62 58 55 53 49 45 41 37 34 33 32 32 32 32 33 33 34 37 39 42 44 45 46 47 46 46 46 46 47 51 54 54 51 48 46 45 45 38 34 33 35 36 37 36 37 38 37 36 34
82 82 80 76 72 68 65 64 66 70 74 78 80 82 83 85 86 86 86 88 88 88 88 87 86 85 85 84 83 83 83 84 85 85 84 82 80 77 75 74 74 73 73 74 74 75 75 75 75 75 75 74 71 67 62 58 55 52 48 43 39 34 32 30 29 29 30 31 32 33 35 38 41 43 45 46 46 46 46 46 46 46 47 51 54 54 49 46 46 47 46 40 36 36 40 40 40 39 40 40 40 39 38
85 83 81 78 74 70 67 67 70 74 77 80 82 83 84 86 87 88 89 90 90 91 90 90 89 88 87 85 84 84 84 84 85 85 84 82 80 78 77 76 75 75 76 76 77 78 79 78 78 78 77 76 73 70 65 60 55 50 45 40 35 31 29 29 28 28 29 31 33 35 37 40 43 45 46 46 46 46 46 46 47 47 47 49 51 51 48 46 47 48 47 43 39 38 42 43 43 42 42 42 42 42 42
88 86 84 81 77 73 71 71 74 76 77 79 80 82 83 86 88 89 90 91 92 92 92 91 90 89 89 87 86 85 85 85 85 84 83 82 81 79 78 78 78 78 79 79 80 81 82 82 82 81 80 79 76 73 66 59 51 45 40 35 32 29 29 29 29 30 31 34 37 39 41 43 45 46 46 46 47 47 47 47 48 49 49 49 49 48 46 46 48 49 48 46 43 41 42 43 43 43 43 43 43 43 44
90 88 86 83 81 78 75 75 77 79 78 78 79 80 82 85 87 89 90 91 92 92 92 91 91 90 89 88 87 86 86 86 86 85 83 82 81 81 80 80 80 81 81 82 84 85 86 86 85 84 81 79 75 70 63 54 45 39 34 32 30 31 31 31 31 33 36 39 41 42 44 45 46 47 47 47 48 48 49 49 49 50 50 51 50 48 47 47 48 50 48 47 46 44 41 43 44 43 43 43 43 44 45
91 90 89 87 85 83 79 79 81 82 81 79 79 80 81 83 86 88 90 91 91 92 91 91 90 89 88 87 87 86 86 86 86 86 85 84 84 83 83 82 83 84 85 86 88 88 87 85 83 80 76 71 68 64 58 48 39 34 31 32 33 35 36 36 37 38 41 43 45 45 45 46 47 48 48 49 50 50 50 50 50 50 50 51 50 50 49 48 48 49 49 48 47 46 43 43 44 43 43 43 43 44 46
92 92 92 92 91 89 85 83 84 85 85 83 82 81 81 82 84 86 89 90 91 91 91 90 88 87 86 86 86 86 86 86 87 87 87 86 86 85 84 84 85 86 87 87 86 84 80 76 72 68 64 61 58 56 52 43 37 33 33 36 39 42 44 44 45 45 46 46 46 46 46 47 48 49 50 50 51 51 50 50 50 49 50 50 51 51 50 49 48 48 50 49 48 47 45 44 43 43 43 43 44 46 47
93 93 93 94 94 92 89 86 86 87 87 85 84 83 82 82 83 85 87 89 90 90 90 89 88 87 87 87 87 86 85 86 87 87 87 86 85 84 83 83 84 84 84 81 77 72 67 63 59 56 54 53 52 51 47 41 38 37 40 44 47 50 52 51 51 50 48 46 45 45 47 48 50 51 51 51 51 51 50 49 48 48 49 50 51 52 51 49 48 47 48 49 49 48 46 44 43 43 43 44 46 47 47
92 92 92 93 93 93 92 89 87 87 87 87 87 87 86 84 84 85 87 89 89 90 90 90 89 89 88 88 87 86 85 86 87 87 87 85 84 83 82 80 79 78 75 70 65 61 58 56 55 54 54 55 54 52 49 45 43 44 48 52 54 55 55 53 51 48 44 43 43 45 47 49 51 51 52 52 51 50 49 48 48 48 48 49 50 51 52 49 47 46 44 47 48 47 46 44 43 43 45 46 47 48 47
90 91 90 91 92 92 93 92 91 90 90 90 90 89 88 87 87 87 89 90 91 91 92 92 91 90 90 89 87 86 86 86 86 85 85 83 81 80 78 76 73 69 65 62 60 59 58 59 60 61 62 62 62 60 57 53 51 50 51 54 54 52 48 46 43 41 39 41 43 45 47 49 50 52 52 52 52 51 50 49 48 48 47 48 48 49 50 48 47 46 44 44 45 45 44 44 44 45 47 48 48 47 46
87 89 91 92 92 92 92 92 93 93 93 92 92 91 91 90 90 90 90 91 92 92 92 92 91 90 89 87 86 85 86 86 85 84 82 80 78 75 73 71 67 64 62 62 62 62 63 64 66 67 69 69 67 66 63 58 54 52 52 53 52 48 42 40 39 39 40 41 43 44 45 47 49 52 53 53 53 53 51 50 49 48 47 47 47 47 47 47 46 46 45 43 41 41 41 42 44 46 48 47 46 45 43
83 85 87 90 92 93 93 93 93 93 93 93 93 93 93 93 92 92 91 91 91 91 90 90 89 88 87 87 86 86 87 86 85 83 79 76 73 71 70 68 67 67 67 68 68 67 67 68 69 70 71 71 70 70 68 62 56 50 48 49 48 45 40 39 40 41 42 43 44 44 45 47 49 51 53 54 55 54 53 51 50 48 47 46 46 45 45 44 43 42 42 42 41 41 41 43 44 45 45 45 44 42 41
82 82 82 84 86 88 90 91 92 93 93 93 93 93 93 93 92 92 91 91 90 90 88 87 86 86 86 87 87 88 88 87 85 82 78 74 70 68 68 68 69 69 69 69 70 70 70 71 71 71 71 71 71 71 70 65 58 52 48 47 46 43 40 40 40 41 42 44 44 45 46 48 50 51 53 55 55 55 54 53 51 49 47 46 45 44 42 41 40 38 38 39 41 43 44 44 44 43 42 42 41 41 41
82 81 80 80 81 82 83 85 86 87 87 88 88 89 89 89 89 89 88 88 87 86 85 84 84 85 86 87 88 89 89 87 85 81 76 72 68 67 66 66 66 67 67 68 68 68 69 69 69 68 68 69 70 70 69 63 58 54 51 49 46 43 40 40 40 41 42 43 45 46 48 50 51 52 54 55 56 56 55 53 51 49 47 45 44 42 41 40 39 39 39 39 41 42 42 42 41 40 40 40 39 39 39
82 81 79 79 79 79 80 80 81 82 82 83 84 84 85 86 86 86 86 85 84 84 84 85 86 88 89 89 90 90 89 86 83 80 76 72 70 68 66 65 64 63 62 64 64 64 63 63 62 62 61 63 64 65 63 58 55 54 52 49 45 41 38 39 40 41 43 45 47 49 51 52 53 54 54 55 55 55 54 52 50 48 46 44 43 42 41 41 41 42 42 42 41 40 40 39 38 38 38 37 37 37 37
82 81 80 79 78 78 79 79 80 81 81 82 83 84 85 85 85 85 85 84 83 84 86 87 87 87 87 88 87 87 86 84 81 79 78 77 75 73 69 66 63 61 60 61 61 60 57 57 56 55 54 55 55 55 54 53 53 52 51 45 40 37 37 40 43 45 48 49 50 51 53 53 54 54 53 53 53 52 51 49 47 44 42 41 40 40 41 41 42 42 42 42 41 41 40 39 39 38 38 37 37 36 36
84 83 81 80 79 78 78 78 79 80 80 81 82 82 83 83 83 82 82 82 83 84 84 84 84 83 83 82 81 80 78 76 75 75 76 75 73 71 68 65 62 60 59 58 57 56 54 53 51 50 50 50 50 50 50 50 49 48 45 40 37 36 38 43 47 50 52 52 52 52 52 52 52 52 52 51 51 50 49 46 43 41 38 37 36 36 36 36 36 36 37 36 37 37 37 38 38 38 38 37 37 36 35
85 85 85 83 82 80 79 79 79 79 79 79 80 80 80 79 79 79 80 81 81 81 81 81 80 80 79 78 76 75 72 71 71 71 70 67 65 63 62 60 58 56 54 53 52 51 50 49 47 47 47 46 46 45 45 44 43 41 39 37 38 40 43 47 50 53 54 54 53 53 52 51 51 50 50 50 50 49 47 45 42 39 36 34 33 33 32 32 32 31 31 31 31 31 31 31 31 32 32 32 32 32 31
84 85 85 84 84 83 82 81 81 80 80 80 79 79 78 78 78 78 78 78 78 78 78 78 78 77 76 74 72 71 69 69 68 67 63 60 59 58 58 58 56 55 53 51 50 48 46 45 45 44 44 43 42 41 40 39 38 38 38 39 42 45 48 50 52 53 54 54 53 53 51 50 50 50 50 50 49 48 47 44 41 39 36 35 34 33 32 32 32 31 30 30 29 28 27 26 26 25 25 25 25 25 25
83 83 84 84 83 83 83 82 81 81 80 79 78 78 77 77 76 76 75 75 75 75 75 74 74 73 71 69 69 68 69 68 66 63 60 58 56 55 54 55 57 57 56 53 50 47 45 44 43 43 43 43 43 43 41 41 40 40 41 43 46 48 51 52 53 54 54 54 53 52 51 50 50 49 50 50 49 48 47 45 43 41 39 37 36 35 34 34 33 32 31 29 28 27 25 24 23 22 22 21 20 19 19
82 82 82 82 82 82 81 81 80 79 78 77 76 76 75 75 74 74 73 72 72 71 70 70 69 67 66 65 66 67 68 67 65 62 59 57 54 51 50 51 53 54 53 51 48 45 43 42 42 42 43 44 45 45 45 45 44 44 45 46 47 49 50 51 52 53 53 53 52 51 50 50 49 49 49 49 49 48 47 46 44 43 41 40 38 37 36 35 33 31 29 27 26 24 23 22 21 20 20 19 19 18 17
81 81 81 81 80 80 80 79 78 78 77 76 75 74 74 73 73 72 70 70 69 68 67 66 65 63 62 62 63 65 65 64 62 60 58 55 51 46 45 47 48 48 48 47 45 43 42 41 40 41 43 44 45 46 48 47 47 47 47 47 48 48 49 49 49 49 49 48 47 47 47 47 47 47 47 47 47 46 45 44 43 41 40 39 38 36 34 33 30 28 26 24 23 22 21 20 19 19 19 18 18 18 18